Lid_Strength_Index
0 0 0 0 0 0 1 6 14 5 3 10 9 14 10 8 9 8 9 8 10 11 12 13 12 13 11 8 8 11 10 12 15 13 9 8 10 12 11 16 17 15 16 15
0 0 0 0 0 0 3 8 10 5 2 12 12 10 9 9 9 9 9 9 9 9 11 14 12 11 8 8 9 10 10 12 16 14 12 10 13 11 10 11 13 16 18 15
1 1 0 0 0 0 3 7 12 10 7 6 9 12 12 11 7 8 7 8 7 9 11 10 12 11 9 8 8 7 9 12 14 17 14 12 14 13 11 12 17 16 15 13
1 1 0 0 0 0 3 8 12 9 11 11 10 10 10 11 10 7 7 9 9 9 12 12 12 11 10 8 8 8 9 14 12 12 11 11 12 12 12 13 12 16 14 13
1 1 1 0 0 1 5 11 13 9 10 9 10 11 11 11 10 9 10 10 9 9 11 11 12 11 10 10 9 10 9 14 12 14 11 11 12 11 11 11 12 12 11 12
2 1 1 1 1 2 6 6 7 9 11 11 12 12 10 10 8 8 7 8 9 10 9 8 7 7 7 8 10 11 11 13 14 17 13 13 15 12 11 11 12 12 14 12
2 1 1 1 1 2 6 7 9 12 14 13 12 11 10 10 9 9 8 7 9 7 5 5 6 7 8 8 9 8 11 12 13 16 14 20 12 9 10 12 11 10 10 10
2 2 2 2 2 2 5 7 8 10 15 12 12 11 10 9 8 8 8 7 6 5 7 11 12 12 12 10 9 9 9 12 15 17 18 14 12 11 12 12 13 9 10 9
2 2 2 2 2 2 4 6 6 8 12 12 10 11 10 12 11 9 8 5 5 6 10 12 15 16 14 15 12 8 9 10 13 15 18 20 14 10 7 8 16 9 9 9
1 1 1 1 1 2 3 5 5 7 10 9 9 11 11 9 9 10 8 8 9 7 11 14 15 15 11 15 16 15 14 13 15 16 17 14 10 9 8 16 15 8 8 8
1 1 1 1 1 1 3 5 4 7 9 8 7 7 9 8 8 10 8 9 9 9 12 13 14 15 12 13 12 14 14 15 16 15 17 18 8 9 13 10 8 8 8 7
1 1 1 1 1 1 2 5 3 3 7 7 6 5 5 5 5 7 6 8 8 8 11 12 12 14 13 12 16 10 15 12 14 13 13 9 7 8 6 8 9 10 9 9
1 0 0 0 1 1 2 4 3 4 7 7 7 8 5 3 3 2 8 6 6 7 6 9 10 13 11 14 14 12 10 8 12 12 10 9 8 7 7 7 9 9 9 9
1 0 0 0 0 0 2 4 3 4 6 9 10 4 6 4 4 2 3 5 3 4 5 9 11 12 9 12 11 12 10 9 11 11 10 9 10 9 8 9 8 9 10 10
0 0 -0 -0 -0 0 1 3 3 3 6 11 9 6 4 4 4 4 3 4 5 6 8 12 11 9 10 9 10 11 9 11 12 14 11 10 11 10 9 10 10 10 11 12
0 -0 -0 -1 -0 0 3 7 3 2 4 7 13 6 6 5 4 4 4 4 5 6 8 10 8 6 9 12 13 11 10 10 10 12 11 10 10 10 10 10 11 12 13 13
0 0 -0 -0 -0 2 5 7 5 2 3 7 11 11 6 4 4 5 6 5 7 6 7 9 8 8 8 10 14 12 11 11 10 10 10 10 11 13 12 11 11 12 14 15
0 0 0 -0 -0 1 4 2 1 2 4 5 11 10 8 4 8 8 5 7 6 7 7 7 9 8 8 15 13 12 12 11 12 12 11 11 11 11 13 12 12 13 15 15
-0 0 -0 2 5 6 4 1 1 1 4 10 10 12 12 5 7 6 7 6 10 7 9 9 8 12 16 14 14 14 14 14 14 13 13 13 13 13 13 14 14 15 16 16
1 3 6 9 4 0 1 5 7 6 5 6 9 7 10 7 8 8 9 8 10 12 10 8 13 15 13 13 14 14 14 14 14 15 16 15 15 15 16 17 16 16 17 17
3 6 7 3 1 4 7 9 9 8 10 10 9 8 9 6 10 10 9 10 10 13 11 11 14 16 15 14 15 15 14 15 16 16 17 16 16 16 17 18 18 18 18 18
3 3 2 3 6 7 9 11 9 11 12 9 12 9 7 7 7 9 9 12 11 15 9 13 20 17 15 15 16 16 16 16 17 17 18 18 17 17 18 18 18 19 19 20
3 5 8 8 10 12 16 14 12 11 10 8 8 9 10 9 8 9 10 12 14 9 15 19 19 16 16 16 16 16 16 17 18 18 18 19 20 20 20 21 21 21 22 22
8 12 18 16 15 17 16 13 13 12 10 10 9 9 10 9 10 10 12 11 11 15 19 23 19 17 16 16 16 17 18 19 20 22 22 22 22 22 22 22 22 23 23 22
12 13 18 17 15 14 14 12 12 10 10 10 9 9 9 12 15 12 12 16 20 20 23 20 18 17 17 17 17 18 19 23 22 24 23 24 24 23 23 22 22 22 22 22
13 14 15 13 17 17 16 15 15 11 11 10 10 14 16 17 17 19 21 18 23 23 21 18 18 20 20 19 18 20 21 22 22 22 22 22 23 23 22 22 21 22 22 24
14 16 14 14 15 16 17 15 14 11 12 13 12 16 17 13 19 20 18 23 22 19 18 18 20 19 19 20 20 20 20 21 21 22 21 21 20 21 21 22 22 21 21 22